sat.trackr.live / text

‹ back to catalog

STARLINK-4783

NORAD 53835 · 2022-114T

PAYLOAD ACTIVE UNKNOWN

§ Identity

Operator
Country
US
Launch date
2022-09-19
Launch site
AFETR
Launch vehicle
Mass (kg)
RCS (m²)

Purposes: comms

External: N2YO · Heavens-Above · Gunter

§ Orbital elements

Epoch: 2026-09-19T10:29:14.022240Z

Period
95.44 min
Inclination
53.1618°
Eccentricity
0.0001263
Mean motion
15.08828860 rev/d
Perigee alt
538.9 km
Apogee alt
540.7 km
Semi-major
6,917.9 km
B*
-4.1841e-5
RAAN
153.4820°
Arg perigee
93.8078°
Mean anomaly
266.3058°
Rev number
22,208

§ Raw data

STARLINK-47831 53835U 22114T   26262.43696785 -.00000954  00000+0 -41841-4 0  99912 53835  53.1618 153.4820 0001263  93.8078 266.3058 15.08828860222080

JSON: /api/v1/satellites/53835 · /tle

For live sub-satellite position, see the globe view (requires WebGL).

§ Visibility from observer

Set your observer location to see the next 7 days of passes ≥ 10°. The values pass through the URL so the page stays shareable.

No JS? Fill the form by hand. The geolocation button needs JavaScript.